Вернуться в каталог

COSMOS 374 DEB

АктивенUNKNOWN
NORAD 4823·DEBRIS·🇷🇺 Russia

Запущен Oct 23, 1970 с Baikonur Cosmodrome

Loading…

Ближайшие Пролёты

TLE

Source: Space-Track
1 04823U 70089T   26218.92140397  .00000347  00000-0  36400-3 0  9995
2 04823  63.0183 130.3806 0943841  25.4018 339.0409 12.66330705543047

Отслеживайте COSMOS 374 DEB в реальном времени с AllMySat

Download on the App Store